Hourly Weather Roundup
Issued by NWS Central Illinois

Home | Current Version | Previous Version | Text Only | Print | Product List | Glossary On
Versions: 1 2 3 4 5 6 7 8 9 10 11 12 13 14 15 16 17 18 19 20 21 22 23 24 25 26 27 28 29 30 31 32 33 34 35 36 37 38 39 40 41 42 43 44 45 46 47 48 49 50
000
NZUS43 KILX 030710
HWRILX

AREA WEATHER ROUNDUP
NATIONAL WEATHER SERVICE, LINCOLN IL
100 AM CST TUE MAR 03 2015


CITY           SKY/WX    TMP DP  RH WIND       PRES   REMARKS
BLOOMINGTON    FLURRIES  26  19  74 SE13      30.14F WCI  15
CHAMPAIGN      CLOUDY    26  20  77 SE12      30.17F WCI  16
DECATUR        FRZ RAIN  27  22  81 E8        30.16F WCI  19
FLORA          CLOUDY    30  21  69 SE8       30.19F WCI  22
GALESBURG      CLOUDY    26  21  81 SE7       30.11F WCI  19
JACKSONVILLE   CLOUDY    31  24  76 SE8       30.14F WCI  23
LACON          MIX PCPN  25  18  77 SE9       30.15F WCI  15
LAWRENCEVILLE  CLOUDY    30  20  66 SE8       30.21F WCI  22
LITCHFIELD     MIX PCPN  29  19  66 SE17      30.08F WCI  17
$$


CITY           SKY/WX    TMP DP  RH WIND       PRES   REMARKS
LINCOLN        LGT RAIN  28  23  79 SE9       30.18F WCI  19
MACOMB         CLOUDY    28  23  82 SE10      30.13F WCI  18
MATTOON        CLOUDY    29  17  61 SE12      30.17F WCI  19
MT CARMEL AP   CLOUDY    32  23  69 SE8       30.20F WCI  25
OLNEY-NOBLE AP CLOUDY    30  19  64 SE7       30.20S WCI  23
PARIS          CLOUDY    28  19  69 E3        30.20F
PEORIA         MIX PCPN  28  19  69 SE8       30.15F WCI  20
PONTIAC        CLOUDY    25  21  86 E12       30.18F WCI  14
RANTOUL        CLOUDY    27  22  81 SE8       30.17F WCI  18
ROBINSON       CLOUDY    29  19  65 SE7       30.23F WCI  22
SPRINGFIELD    CLOUDY    29  22  75 E9        30.14F WCI  20
TAYLORVILLE    CLOUDY    28  21  74 SE10      30.14F WCI  19
$$

...REGIONAL REPORTS...


CITY           SKY/WX    TMP DP  RH WIND       PRES   REMARKS
CHICAGO O`HARE CLOUDY    26  16  65 S13       30.20F WCI  15
KANKAKEE       CLOUDY    26  19  77 E7        30.22F WCI  18
MOLINE         CLOUDY    27  18  69 SE9       30.10F WCI  18
MOUNT VERNON   CLOUDY    30  19  64 E3        30.18F
PITTSFIELD     LGT RAIN  30  23  77 E12       30.08F WCI  20
QUINCY         MIX PCPN  29  21  72 SE12      30.07F WCI  19
ROCKFORD       CLOUDY    24  17  74 SE9       30.17F WCI  14
$$


CITY           SKY/WX    TMP DP  RH WIND       PRES   REMARKS
BURLINGTON     CLOUDY    28  21  75 SE12      30.06F WCI  18
CEDAR RAPIDS   CLOUDY    26  19  74 SE12      30.03F WCI  16
DES MOINES     CLOUDY    30  20  66 SE13      29.96F WCI  20
KIRKSVILLE     MIX PCPN  30  23  75 S15       30.03F WCI  19
OTTUMWA        CLOUDY    29  19  66 SE13      30.00F WCI  19
ST LOUIS       CLOUDY    33  21  61 SE9       30.12F WCI  25
$$


CITY           SKY/WX    TMP DP  RH WIND       PRES   REMARKS
TERRE HAUTE    CLOUDY    28  17  63 E7        30.22F WCI  21
EVANSVILLE     CLOUDY    34  21  59 E5        30.23F WCI  30
INDIANAPOLIS   CLOUDY    26  16  65 SE10      30.21F WCI  16
LAFAYETTE      CLOUDY    25  16  68 SE5       30.25S WCI  19
MADISON        CLOUDY    24  15  68 S7        30.14F WCI  16
MILWAUKEE      CLOUDY    25  16  68 S6        30.20F WCI  18
$$





USA.gov is the U.S. government's official web portal to all federal, state and local government web resources and services.